Location: Unspecified
(0.0000°N, 0.0000°E)
Time: 20:54:48
(UTC+00:00)

S-56A Canister/Altair - Pass Details

Date: 20 April 2019
Orbit: 633 x 2499 km, 38.9° (Epoch: 24 May)

Event Time Altitude Azimuth Distance (km) Brightness Sun altitude
Rises 20:40:18 0° 293° (WNW) 3,233 11.6 -39.4°
Reaches altitude 10° 20:43:10 10° 282° (WNW) 2,153 10.5 -40.0°
Enters shadow 20:43:58 14° 276° (W) 1,875 10.1 -40.2°
